#timestamp,LO_Frequency,Hit,StdDev 
1570500015.9,286046997.9,P
1570500035.7,286046993.9,P
1570500055.6,286046991.7,P
1570500075.4,286046992.1,N
1570500095.2,286046993.9,N
1570500115.1,286046992.1,N
1570500116.0,286046992.1,N
1570500135.8,286046992.5,N
1570500155.6,286046992.1,Y
1570500175.5,286046999.1,P
1570500195.3,286046996.9,N
1570500215.2,286046997.2,N
1570500235.9,286046997.4,N
1570500255.7,286046995.0,Y
1570500275.6,286047001.1,P
1570500295.4,286047000.9,N
1570500315.3,286047001.1,N
1570500335.1,286046997.0,N
1570500336.0,286046997.0,N
1570500355.8,286046998.0,N
1570500375.7,286046997.0,N
1570500395.5,286046999.5,N
1570500415.3,286046997.0,N
1570500435.2,286046995.3,N
1570500455.0,286046996.1,N
1570500455.9,286046996.1,N
1570500475.8,286046994.6,N
1570500495.6,286046999.6,N
1570500515.4,286046999.0,N
1570500535.3,286046999.2,N
1570500555.1,286046998.1,N
1570500575.9,286046999.0,N
1570500595.7,286046999.1,N
1570500615.5,286047000.4,N
1570500635.4,286047001.0,N
1570500655.2,286047000.7,N
1570500675.0,286046999.0,N
1570500675.9,286046999.0,N
1570500695.8,286046997.2,N
1570500715.6,286046997.1,N
1570500735.5,286046995.7,N
1570500755.3,286046994.5,N
1570500775.1,286046994.0,Y
1570500795.9,286046996.0,P
1570500815.7,286046996.2,P
1570500835.5,286046995.8,P
1570500855.4,286046993.8,Y
1570500875.2,286046996.9,P
1570500895.1,286046997.7,P
1570500896.0,286046997.7,P
1570500915.8,286046995.8,Y
1570500935.6,286046999.3,P
1570500955.5,286046998.7,N
1570500975.3,286046996.7,P
1570500995.1,286046998.9,N
1570501015.9,286046996.8,Y
1570501035.7,286046999.7,P
1570501055.6,286047002.7,P
1570501075.4,286047000.9,N
1570501095.2,286047000.2,N
1570501115.1,286047000.9,N
1570501116.0,286047000.9,N
1570501135.8,286046998.7,N
1570501155.7,286046998.5,N
1570501175.5,286046996.6,N
1570501195.3,286046999.1,N
1570501215.2,286046997.3,N
1570501235.0,286046997.0,N
1570501235.9,286046997.0,N
1570501255.7,286046997.6,N
1570501275.6,286046997.7,N
1570501295.4,286046997.3,N
1570501315.3,286046997.7,N
1570501335.1,286046997.3,N
1570501336.0,286046997.3,N
1570501355.8,286046994.9,Y
1570501375.7,286046999.4,P
1570501395.5,286047001.2,P
1570501415.3,286047000.9,N
1570501435.2,286046998.6,N
1570501455.0,286046998.7,N
1570501455.9,286046998.7,N
1570501475.8,286046999.4,N
1570501495.6,286046998.8,N
1570501515.4,286047000.1,N
1570501535.3,286047000.7,N
1570501555.1,286046996.8,Y
1570501575.9,286046997.1,P
1570501595.7,286046997.0,N
1570501615.5,286046995.0,P
1570501635.4,286046997.7,N
1570501655.2,286046999.5,N
1570501675.0,286046996.7,N
1570501675.9,286046996.7,N
1570501695.8,286046996.5,N
1570501715.6,286046998.6,N
1570501735.5,286047002.0,N
1570501755.3,286046998.2,N
1570501775.1,286047000.7,N
1570501795.9,286047000.4,N
1570501815.7,286047000.5,N
1570501835.5,286047000.2,N
1570501855.4,286046998.3,N
1570501875.2,286046999.9,N
1570501895.1,286047000.9,N
1570501896.0,286047000.9,N
1570501915.8,286046998.4,N
1570501935.6,286046996.6,N
1570501955.5,286047011.9,Y
1570501975.3,286046999.1,P
1570501995.1,286046999.3,P
1570502015.9,286046998.4,P
1570502035.7,286046999.2,N
1570502055.6,286046997.4,Y
1570502075.4,286046998.7,P
1570502095.2,286046998.8,P
1570502115.1,286047000.7,P
1570502116.0,286047000.7,N
1570502135.8,286046999.8,N
1570502155.7,286047000.0,N
1570502175.5,286046998.6,N
1570502195.3,286046998.8,N
1570502215.2,286046998.8,N
1570502235.0,286046998.2,N
1570502235.9,286046998.2,N
1570502255.8,286047000.3,N
1570502275.6,286047002.2,N
1570502295.4,286046998.7,N
1570502315.3,286046998.5,N
1570502335.1,286046998.5,N
1570502355.8,286046999.3,N
1570502375.7,286046998.6,N
1570502395.5,286046998.6,N
1570502415.4,286046999.1,N
1570502435.2,286046996.9,Y
1570502455.0,286046998.3,P
1570502455.9,286046998.3,P
1570502475.8,286046998.5,P
1570502495.6,286046998.1,Y
1570502515.5,286047000.3,P
1570502535.3,286047000.9,N
1570502555.1,286047000.0,N
1570502575.9,286047002.6,Y
1570502595.7,286047005.4,P
1570502615.5,286047001.6,N
1570502635.4,286047002.8,N
1570502655.2,286047002.4,N
1570502675.1,286047006.0,Y
1570502676.0,286047006.0,P
1570502695.8,286047000.5,N
1570502715.6,286047000.8,N
1570502735.5,286046999.8,N
1570502755.3,286047000.2,N
1570502775.1,286047000.3,N
1570502795.9,286047001.0,N
1570502815.7,286046999.1,N
1570502835.6,286046999.5,N
1570502855.4,286046999.4,N
1570502875.2,286046998.4,N
1570502895.1,286047002.0,N
1570502896.0,286047002.0,N
1570502915.8,286047005.9,Y
1570502935.6,286047004.4,P
1570502955.5,286047001.0,N
1570502975.3,286047000.7,N
1570502995.2,286047000.9,N
1570503015.9,286046999.8,N
1570503035.7,286047000.1,N
1570503055.6,286047001.4,N
1570503075.4,286047003.8,N
1570503095.2,286047002.1,N
1570503115.1,286047002.8,N
1570503116.0,286047002.8,N
1570503135.8,286047002.1,N
1570503155.7,286046999.9,N
1570503175.5,286047000.1,N
1570503195.3,286047001.9,N
1570503215.2,286047005.8,Y
1570503235.0,286047000.7,P
1570503235.9,286047000.7,N
1570503255.7,286047001.7,P
1570503275.6,286047011.9,Y
1570503295.4,286047002.6,P
1570503315.3,286047000.1,N
1570503335.1,286047000.4,N
1570503336.0,286047000.4,N
1570503355.8,286047000.5,N
1570503375.7,286047000.8,N
1570503395.5,286047000.7,N
1570503415.4,286046996.5,Y
1570503435.2,286047000.9,P
1570503455.0,286046998.2,P
1570503455.9,286046998.2,N
1570503475.8,286046999.4,N
1570503495.6,286046996.9,N
1570503515.4,286046998.7,N
1570503535.3,286047001.5,N
1570503555.1,286047002.6,N
1570503575.8,286047000.1,N
1570503595.7,286047000.3,N
